Location: Newark
(29.9790°N, 31.1340°E)
Time: 20:59:38
(UTC+00:00)

Transit 2A Rocket - Pass Details

Date: 27 January 2020
Orbit: 591 x 912 km, 66.7° (Epoch: 25 February)

Event Time Altitude Azimuth Distance (km) Brightness Sun altitude
Rises 00:59:19 0° 164° (SSE) 2,889 - -49.6°
Reaches altitude 10° 01:02:34 10° 138° (SE) 1,948 - -48.9°
Maximum altitude 01:04:50 14° 107° (ESE) 1,682 - -48.4°
Drops below altitude 10° 01:07:04 10° 75° (ENE) 1,922 - -47.9°
Sets 01:10:14 0° 50° (NE) 2,823 - -47.3°
